{"data":{"norad_id":60904,"epoch":"2026-09-21T09:03:17.580384Z","epoch_age_seconds":112774,"freshness":"FRESH","line1":"1 60904U 24154B   26264.37728681 -.00000657  00000+0 -56928-6 0  9992","line2":"2 60904  53.1595 246.2815 0001007  81.8723 278.2409 15.69707478119258","mean_motion":15.69707478,"eccentricity":0.0001007,"inclination_deg":53.1595,"raan_deg":246.2815,"arg_perigee_deg":81.8723,"mean_anomaly_deg":278.2409,"bstar":-5.6928e-7,"rev_number":11925,"period_min":91.73683760714,"perigee_km":359.05546382165,"apogee_km":360.41247103449,"semimajor_km":6737.8709674281,"source":"CELESTRAK","updated_at":"2026-09-22T09:00:49.282304Z"}}